Terminal Aerodrome Forecast
Issued by NWS Buffalo, NY

Home | Current Version | Previous Version | Text Only | Print | Product List | Glossary On
Versions: 1 2 3 4 5 6 7 8 9 10 11 12 13 14 15 16 17 18 19 20 21 22 23 24 25 26
000
FTUS41 KBUF 280500
TAFBUF
TAF
KBUF 280531Z 2806/2906 04004KT P6SM BKN007 OVC035
     FM281000 01012KT 2SM +RA BKN007 OVC040
     FM281400 36011KT 3SM +RA BKN020 OVC040
     FM281600 36011KT 6SM -SHRA BKN035 OVC040
     FM281800 34013KT P6SM BKN200
     FM290200 30009KT P6SM SCT050=

USA.gov is the U.S. government's official web portal to all federal, state and local government web resources and services.